Guantanamo Bay NAS, Cuba

2:41 AM CST on November 20, 2017 (GMT -0500)
Guantanamo Bay Naval Air Station

Weather History for MUGM - September, 2017

Change the Weather History Date:

Wednesday, September 13, 2017

  Actual Average Record
Temperature  
Mean Temperature 84 °F -  
Max Temperature 93 °F 87 °F 93 °F (2015)
Min Temperature 76 °F 74 °F 73 °F (1998)
Cooling Degree Days 20    
Growing Degree Days 34 (Base 50)    
Moisture  
Dew Point 77 °F    
Average Humidity 87    
Maximum Humidity 100    
Minimum Humidity 62    
Precipitation  
Precipitation 0.17 in - - ()
Sea Level Pressure  
Sea Level Pressure 29.93 in    
Wind  
Wind Speed 6 mph ()    
Max Wind Speed 13 mph    
Max Gust Speed 17 mph    
Visibility 6.2 miles    
Events Rain , Thunderstorm    
Averages and records for this station are not official NWS values.
T = Trace of Precipitation, MM = Missing Value Source: Averaged Metar Reports

Daily Weather History Graph

Daily Weather History Graph

Search for Another Location

Airport or City:

Trip Planner

Search our weather history database for the weather conditions in past years. The results will help you decide how hot, cold, wet, or windy it might be!

Date:

Astronomy

Sep. 13, 2017 Rise Set
Actual Time 6:47 AM CDT 7:05 PM CDT
Civil Twilight 6:25 AM CDT 7:27 PM CDT
Nautical Twilight 6:00 AM CDT 7:52 PM CDT
Astronomical Twilight 5:34 AM CDT 8:18 PM CDT
Moon 12:19 AM CDT (9/13) 1:45 PM CDT (9/13)
Length of Visible Light 13h 01m
Length of Day
12h 17m
Last Quarter, 46% of the Moon is Illuminated
Sep 13
Last Quarter
Sep 20
New
Sep 27
First Quarter
Oct 5
Full
Oct 12
Last Quarter

Hourly Weather History & Observations

Time (CDT) Temp. Heat Index Dew Point Humidity Pressure Visibility Wind Dir Wind Speed Gust Speed Precip Events Conditions
12:56 AM 79.3 °F - 77.5 °F 94% 29.92 in 6.2 mi NW 4.6 mph - N/A   Mostly Cloudy
1:56 AM 79.0 °F - 78.1 °F 97% 29.91 in 6.2 mi NW 6.9 mph - N/A   Mostly Cloudy
2:56 AM 78.8 °F - 78.4 °F 99% 29.89 in 6.2 mi NW 5.8 mph - N/A   Mostly Cloudy
3:56 AM 78.1 °F - 78.1 °F 100% 29.89 in 6.2 mi NW 5.8 mph - N/A   Mostly Cloudy
4:56 AM 78.1 °F - 78.1 °F 100% 29.90 in 6.2 mi NNW 8.1 mph - N/A   Mostly Cloudy
5:56 AM 76.3 °F - 76.3 °F 100% 29.91 in 6.2 mi NW 5.8 mph - N/A   Mostly Cloudy
6:56 AM 76.8 °F - 76.8 °F 100% 29.91 in 6.2 mi NNW 5.8 mph - N/A   Mostly Cloudy
7:56 AM 78.3 °F - 78.3 °F 100% 29.94 in 6.2 mi North 6.9 mph - N/A   Mostly Cloudy
8:56 AM 79.7 °F - 77.9 °F 94% 29.94 in 6.2 mi North 5.8 mph - N/A   Mostly Cloudy
9:56 AM 83.8 °F 94.7 °F 78.1 °F 83% 29.95 in 6.2 mi NNW 6.9 mph - N/A   Mostly Cloudy
10:56 AM 86.2 °F 97.4 °F 77.0 °F 74% 29.96 in 6.2 mi NNW 3.5 mph - N/A   Mostly Cloudy
11:56 AM 87.1 °F 97.3 °F 75.9 °F 69% 29.96 in 6.2 mi SE 6.9 mph - N/A   Mostly Cloudy
12:56 PM 91.9 °F 107.3 °F 78.1 °F 64% 29.94 in 6.2 mi South 9.2 mph - N/A   Mostly Cloudy
1:56 PM 91.9 °F 107.3 °F 78.1 °F 64% 29.92 in 6.2 mi South 10.4 mph - N/A   Scattered Clouds
2:56 PM 93.0 °F 108.9 °F 78.4 °F 62% 29.89 in 6.2 mi South 6.9 mph - N/A   Mostly Cloudy
3:56 PM 90.0 °F 102.5 °F 77.0 °F 65% 29.89 in 6.2 mi SSE 5.8 mph - N/A   Mostly Cloudy
4:56 PM 89.1 °F 103.2 °F 78.1 °F 70% 29.89 in 6.2 mi SE 4.6 mph - N/A   Mostly Cloudy
5:56 PM 84.9 °F 96.6 °F 78.1 °F 80% 29.93 in 6.2 mi NNW 5.8 mph - 0.00 in Rain Light Rain
6:13 PM 84.0 °F 96.0 °F 79.0 °F 85% 29.93 in 6.2 mi NNW 6.9 mph - 0.03 in Rain , Thunderstorm Thunderstorms and Rain
6:50 PM 78.8 °F - 77.0 °F 94% 29.94 in 6.2 mi NW 12.7 mph - 0.17 in Rain , Thunderstorm Light Rain
6:56 PM 79.0 °F - 76.3 °F 91% 29.94 in 6.2 mi Variable 9.2 mph 17.3 mph 0.17 in Rain , Thunderstorm Light Rain
7:32 PM 79.0 °F - 75.9 °F 90% 29.93 in 6.2 mi WNW 6.9 mph - 0.00 in Thunderstorm Mostly Cloudy
7:44 PM 78.1 °F - 76.3 °F 94% 29.93 in 6.2 mi Variable 5.8 mph - 0.00 in   Mostly Cloudy
7:56 PM 78.1 °F - 75.9 °F 93% 29.93 in 6.2 mi WNW 5.8 mph - 0.00 in   Mostly Cloudy
8:56 PM 79.0 °F - 77.0 °F 94% 29.95 in 6.2 mi NNW 6.9 mph - N/A   Mostly Cloudy
9:56 PM 80.1 °F 85.4 °F 75.9 °F 87% 29.95 in 6.2 mi NNW 5.8 mph - N/A   Mostly Cloudy
10:56 PM 79.0 °F - 75.9 °F 90% 29.95 in 6.2 mi North 5.8 mph - N/A   Mostly Cloudy
11:56 PM 77.2 °F - 75.9 °F 96% 29.95 in 6.2 mi NNW 5.8 mph - N/A   Mostly Cloudy